,,Stat5,,Stat1,,Stat2,,Stat3,,Stat4,,Wind1,,Wind1,
time,status,PA1M_AVG,status,PR1M_SUM,status,RH1M_AVG,status,SR1M_AVG,status,TA1M_AVG,status,W1dAve1m,status,W1sAve1m,
2001-09-21, 00:00:01,VALID,918.116,VALID,0,VALID,95.5789,VALID,-0.0169808,VALID,19.3255,VALID,47,VALID,0,
2001-09-21, 00:01:00,VALID,918.105,VALID,0,VALID,95.556,VALID,0,VALID,19.3511,VALID,47,VALID,0,
2001-09-21, 00:02:00,VALID,918.082,VALID,0,VALID,95.5433,VALID,0,VALID,19.3707,VALID,47,VALID,0,
2001-09-21, 00:03:00,VALID,918.075,VALID,0,VALID,95.439,VALID,-0.0169808,VALID,19.3963,VALID,47,VALID,0,
2001-09-21, 00:04:00,VALID,918.074,VALID,0,VALID,95.0054,VALID,0,VALID,19.4001,VALID,47,VALID,0,
2001-09-21, 00:05:00,VALID,918.094,VALID,0,VALID,95.1669,VALID,0,VALID,19.3767,VALID,51,VALID,0.0708841,
2001-09-21, 00:06:00,VALID,918.092,VALID,0,VALID,95.13,VALID,0,VALID,19.3804,VALID,63,VALID,0.430273,
2001-09-21, 00:07:00,VALID,918.082,VALID,0,VALID,95.233,VALID,-0.0169808,VALID,19.361,VALID,60,VALID,0.578926,
2001-09-21, 00:08:00,VALID,918.06,VALID,0,VALID,94.9952,VALID,0,VALID,19.3414,VALID,30,VALID,0.820929,
2001-09-21, 00:09:00,VALID,918.052,VALID,0,VALID,94.6595,VALID,0,VALID,19.2997,VALID,20,VALID,1.14291,
2001-09-21, 00:10:00,VALID,918.03,VALID,0,VALID,94.793,VALID,0,VALID,19.25,VALID,28,VALID,1.16283,
2001-09-21, 00:11:00,VALID,918.012,VALID,0,VALID,95.0499,VALID,0.0169808,VALID,19.2083,VALID,32,VALID,0.939145,
2001-09-21, 00:12:00,VALID,917.987,VALID,0,VALID,95.3869,VALID,0.0169808,VALID,19.1727,VALID,26,VALID,0.388839,
2001-09-21, 00:13:00,VALID,917.987,VALID,0,VALID,95.4759,VALID,0.0339617,VALID,19.1762,VALID,23,VALID,0.352196,
2001-09-21, 00:14:00,VALID,917.966,VALID,0,VALID,95.5166,VALID,0.0169808,VALID,19.176,VALID,25,VALID,0.0975446,
2001-09-21, 00:15:00,VALID,917.951,VALID,0,VALID,95.6056,VALID,0,VALID,19.1695,VALID,25,VALID,0.00102796,
2001-09-21, 00:16:00,VALID,917.924,VALID,0,VALID,95.6755,VALID,0,VALID,19.176,VALID,11,VALID,0.126056,
2001-09-21, 00:17:00,VALID,917.91,VALID,0,VALID,95.8192,VALID,0,VALID,19.2085,VALID,334,VALID,0.406661,
2001-09-21, 00:18:00,VALID,917.903,VALID,0,VALID,95.9972,VALID,0,VALID,19.2175,VALID,311,VALID,0.273649,
2001-09-21, 00:19:00,VALID,917.91,VALID,0,VALID,96.071,VALID,0,VALID,19.2567,VALID,322,VALID,0.000390625,
2001-09-21, 00:20:00,VALID,917.921,VALID,0,VALID,95.8497,VALID,0,VALID,19.2733,VALID,93,VALID,0.758018,
2001-09-21, 00:21:00,VALID,917.937,VALID,0,VALID,95.6857,VALID,0,VALID,19.2438,VALID,119,VALID,1.16992,
2001-09-21, 00:22:00,VALID,917.938,VALID,0,VALID,95.7442,VALID,0,VALID,19.2311,VALID,145,VALID,1.08138,
2001-09-21, 00:23:00,VALID,917.918,VALID,0,VALID,95.8828,VALID,0,VALID,19.212,VALID,168,VALID,0.86616,
2001-09-21, 00:24:00,VALID,917.891,VALID,0,VALID,96.0621,VALID,0,VALID,19.215,VALID,176,VALID,0.733259,
2001-09-21, 00:25:00,VALID,917.844,VALID,0,VALID,96.216,VALID,0,VALID,19.2247,VALID,234,VALID,0.478125,
2001-09-21, 00:26:00,VALID,917.804,VALID,0,VALID,96.216,VALID,0,VALID,19.2378,VALID,254,VALID,0.350962,
2001-09-21, 00:27:00,VALID,917.792,VALID,0,VALID,96.1753,VALID,0,VALID,19.2343,VALID,294,VALID,0.330181,
2001-09-21, 00:28:00,VALID,917.809,VALID,0,VALID,96.1918,VALID,0,VALID,19.2411,VALID,33,VALID,0.365748,
2001-09-21, 00:29:00,VALID,917.82,VALID,0,VALID,96.0761,VALID,0,VALID,19.2537,VALID,57,VALID,0.753711,
2001-09-21, 00:30:00,VALID,917.843,VALID,0,VALID,95.5267,VALID,0,VALID,19.212,VALID,87,VALID,0.838199,
2001-09-21, 00:31:00,VALID,917.852,VALID,0,VALID,95.7137,VALID,0.0169808,VALID,19.1672,VALID,104,VALID,0.758224,
2001-09-21, 00:32:00,VALID,917.845,VALID,0,VALID,96.0939,VALID,0,VALID,19.1342,VALID,125,VALID,0.336571,
2001-09-21, 00:33:00,VALID,917.831,VALID,0,VALID,96.249,VALID,-0.0169808,VALID,19.131,VALID,162,VALID,0.409288,
2001-09-21, 00:34:00,VALID,917.792,VALID,0,VALID,96.2872,VALID,0,VALID,19.1245,VALID,185,VALID,0.52433,
2001-09-21, 00:35:00,VALID,917.769,VALID,0,VALID,96.394,VALID,0,VALID,19.1213,VALID,198,VALID,0.288318,
2001-09-21, 00:36:00,VALID,917.762,VALID,0,VALID,96.5377,VALID,0,VALID,19.134,VALID,196,VALID,0.353252,
2001-09-21, 00:37:00,VALID,917.748,VALID,0,VALID,96.5657,VALID,0,VALID,19.1444,VALID,170,VALID,0.533995,
2001-09-21, 00:38:00,VALID,917.77,VALID,0,VALID,96.441,VALID,0,VALID,19.1412,VALID,156,VALID,0.630345,
2001-09-21, 00:39:00,VALID,917.775,VALID,0,VALID,96.2783,VALID,0,VALID,19.0821,VALID,126,VALID,0.64577,
2001-09-21, 00:40:00,VALID,917.774,VALID,0,VALID,96.2134,VALID,0.0169808,VALID,19.0304,VALID,111,VALID,0.540913,
2001-09-21, 00:41:00,VALID,917.756,VALID,0,VALID,96.3164,VALID,0,VALID,18.9854,VALID,79,VALID,0.505962,
2001-09-21, 00:42:00,VALID,917.718,VALID,0,VALID,96.4512,VALID,0.0169808,VALID,18.9439,VALID,68,VALID,0.50434,
2001-09-21, 00:43:00,VALID,917.686,VALID,0,VALID,96.6915,VALID,0,VALID,18.9312,VALID,82,VALID,0.432221,
2001-09-21, 00:44:00,VALID,917.65,VALID,0,VALID,96.9509,VALID,0,VALID,18.9605,VALID,117,VALID,0.531473,
2001-09-21, 00:45:00,VALID,917.608,VALID,0,VALID,97.0489,VALID,0,VALID,18.9439,VALID,121,VALID,0.377467,
2001-09-21, 00:46:00,VALID,917.559,VALID,0,VALID,97.3159,VALID,-0.0509425,VALID,18.9546,VALID,133,VALID,0.30701,
2001-09-21, 00:47:00,VALID,917.545,VALID,0,VALID,97.382,VALID,-0.101885,VALID,18.9744,VALID,136,VALID,0.325658,
2001-09-21, 00:48:00,VALID,917.527,VALID,0,VALID,97.382,VALID,-0.118866,VALID,18.9873,VALID,146,VALID,0.556799,
2001-09-21, 00:49:00,VALID,917.508,VALID,0,VALID,97.3731,VALID,-0.101885,VALID,18.9841,VALID,136,VALID,0.468555,
2001-09-21, 00:50:00,VALID,917.488,VALID,0,VALID,97.3108,VALID,-0.101885,VALID,18.9747,VALID,120,VALID,0.441201,
2001-09-21, 00:51:00,VALID,917.488,VALID,0,VALID,97.1112,VALID,-0.0849042,VALID,18.9486,VALID,111,VALID,0.310113,
2001-09-21, 00:52:00,VALID,917.462,VALID,0,VALID,96.8734,VALID,-0.0849042,VALID,18.8944,VALID,72,VALID,0.47092,
2001-09-21, 00:53:00,VALID,917.449,VALID,0,VALID,96.8441,VALID,-0.101885,VALID,18.8616,VALID,71,VALID,0.368421,
2001-09-21, 00:54:00,VALID,917.429,VALID,0,VALID,96.5898,VALID,-0.0849042,VALID,18.8099,VALID,71,VALID,0.0700893,
2001-09-21, 00:55:00,VALID,917.422,VALID,0,VALID,96.3329,VALID,-0.118866,VALID,18.7419,VALID,71,VALID,0,
2001-09-21, 00:56:00,VALID,917.409,VALID,0,VALID,96.1575,VALID,-0.101885,VALID,18.7133,VALID,71,VALID,0,
2001-09-21, 00:57:00,VALID,917.402,VALID,0,VALID,96.0545,VALID,-0.0849042,VALID,18.6455,VALID,71,VALID,0.011102,
2001-09-21, 00:58:00,VALID,917.406,VALID,0,VALID,96.0939,VALID,-0.0849042,VALID,18.6233,VALID,71,VALID,0.369038,
2001-09-21, 00:59:00,VALID,917.395,VALID,0,VALID,96.1257,VALID,-0.101885,VALID,18.5972,VALID,71,VALID,0.686523,
2001-09-21, 01:00:00,VALID,917.381,VALID,0,VALID,96.4423,VALID,-0.118866,VALID,18.6169,VALID,74,VALID,0.636308,
2001-09-21, 01:01:00,VALID,917.369,VALID,0,VALID,96.867,VALID,-0.0339617,VALID,18.6517,VALID,86,VALID,0.652344,
2001-09-21, 01:02:00,VALID,917.337,VALID,0,VALID,97.2307,VALID,0,VALID,18.6999,VALID,91,VALID,0.799198,
2001-09-21, 01:03:00,VALID,917.31,VALID,0,VALID,97.3286,VALID,0.0169808,VALID,18.722,VALID,101,VALID,0.756076,
2001-09-21, 01:04:00,VALID,917.281,VALID,0,VALID,97.3884,VALID,0,VALID,18.719,VALID,109,VALID,0.626562,
2001-09-21, 01:05:00,VALID,917.262,VALID,0,VALID,97.5944,VALID,0.0169808,VALID,18.7345,VALID,117,VALID,0.501674,
2001-09-21, 01:06:00,VALID,917.234,VALID,0,VALID,97.5346,VALID,0,VALID,18.7605,VALID,109,VALID,0.45587,
2001-09-21, 01:07:00,VALID,917.211,VALID,0,VALID,97.2905,VALID,-0.0169808,VALID,18.722,VALID,94,VALID,0.46875,
2001-09-21, 01:08:00,VALID,917.19,VALID,0,VALID,97.0222,VALID,0.0169808,VALID,18.6828,VALID,81,VALID,0.453742,
2001-09-21, 01:09:00,VALID,917.178,VALID,0,VALID,96.8085,VALID,0,VALID,18.6512,VALID,78,VALID,0.666159,
2001-09-21, 01:10:00,VALID,917.15,VALID,0,VALID,96.9141,VALID,0,VALID,18.6383,VALID,76,VALID,0.919819,
2001-09-21, 01:11:00,VALID,917.134,VALID,0,VALID,96.9878,VALID,0,VALID,18.6579,VALID,73,VALID,1.07093,
2001-09-21, 01:12:00,VALID,917.111,VALID,0,VALID,97.059,VALID,0,VALID,18.6574,VALID,72,VALID,0.906033,
2001-09-21, 01:13:00,VALID,917.088,VALID,0,VALID,96.8301,VALID,0.0169808,VALID,18.6475,VALID,66,VALID,0.832559,
2001-09-21, 01:14:00,VALID,917.056,VALID,0,VALID,96.3126,VALID,0,VALID,18.5506,VALID,58,VALID,0.935045,
2001-09-21, 01:15:00,VALID,917.028,VALID,0,VALID,96.1409,VALID,0.0169808,VALID,18.486,VALID,52,VALID,0.903988,
2001-09-21, 01:16:00,VALID,917.021,VALID,0,VALID,96.174,VALID,-0.0679233,VALID,18.4485,VALID,51,VALID,0.796875,
2001-09-21, 01:17:00,VALID,916.996,VALID,0,VALID,96.5199,VALID,-0.0849042,VALID,18.4524,VALID,53,VALID,0.796875,
2001-09-21, 01:18:00,VALID,916.991,VALID,0,VALID,97.2739,VALID,-0.101885,VALID,18.5334,VALID,61,VALID,0.748733,
2001-09-21, 01:19:00,VALID,916.977,VALID,0,VALID,97.4062,VALID,-0.101885,VALID,18.5488,VALID,67,VALID,0.639844,
2001-09-21, 01:20:00,VALID,916.974,VALID,0,VALID,97.7165,VALID,-0.0849042,VALID,18.5972,VALID,76,VALID,0.415707,
2001-09-21, 01:21:00,VALID,916.979,VALID,0,VALID,97.3769,VALID,-0.101885,VALID,18.5972,VALID,75,VALID,0.0442708,
2001-09-21, 01:22:00,VALID,916.982,VALID,0,VALID,97.1379,VALID,-0.0679233,VALID,18.5327,VALID,75,VALID,0,
2001-09-21, 01:23:00,VALID,916.991,VALID,0,VALID,96.984,VALID,-0.118866,VALID,18.5043,VALID,75,VALID,0.0193257,
2001-09-21, 01:24:00,VALID,916.98,VALID,0,VALID,97.2002,VALID,-0.118866,VALID,18.5465,VALID,36,VALID,0.229464,
2001-09-21, 01:25:00,VALID,916.98,VALID,0,VALID,97.3744,VALID,-0.118866,VALID,18.582,VALID,277,VALID,0.473047,
2001-09-21, 01:26:00,VALID,916.992,VALID,0,VALID,97.6554,VALID,-0.118866,VALID,18.6533,VALID,271,VALID,0.42528,
2001-09-21, 01:27:00,VALID,917.002,VALID,0,VALID,97.7279,VALID,-0.101885,VALID,18.6881,VALID,235,VALID,0.0627056,
2001-09-21, 01:28:00,VALID,917.002,VALID,0,VALID,97.4837,VALID,-0.0849042,VALID,18.6625,VALID,181,VALID,0.419408,
2001-09-21, 01:29:00,VALID,917.009,VALID,0,VALID,97.4036,VALID,-0.101885,VALID,18.6432,VALID,180,VALID,0.232812,
2001-09-21, 01:30:00,VALID,917.001,VALID,0,VALID,97.5143,VALID,-0.101885,VALID,18.6432,VALID,180,VALID,0.00493421,
2001-09-21, 01:31:00,VALID,916.995,VALID,0,VALID,97.4151,VALID,-0.0169808,VALID,18.6489,VALID,180,VALID,0,
2001-09-21, 01:32:00,VALID,916.978,VALID,0,VALID,96.8098,VALID,0.0339617,VALID,18.5476,VALID,180,VALID,0,
2001-09-21, 01:33:00,VALID,916.973,VALID,0,VALID,96.5949,VALID,0,VALID,18.4508,VALID,180,VALID,0,
2001-09-21, 01:34:00,VALID,916.975,VALID,0,VALID,96.717,VALID,0,VALID,18.4288,VALID,180,VALID,0,
2001-09-21, 01:35:00,VALID,916.984,VALID,0,VALID,96.9014,VALID,0.0169808,VALID,18.4187,VALID,180,VALID,0,
2001-09-21, 01:36:00,VALID,916.979,VALID,0,VALID,97.0908,VALID,0.0169808,VALID,18.4249,VALID,180,VALID,0,
2001-09-21, 01:37:00,VALID,916.991,VALID,0,VALID,97.2549,VALID,0,VALID,18.4383,VALID,180,VALID,0,
2001-09-21, 01:38:00,VALID,916.996,VALID,0,VALID,97.354,VALID,0,VALID,18.451,VALID,180,VALID,0.376028,
2001-09-21, 01:39:00,VALID,917.003,VALID,0,VALID,97.5753,VALID,0,VALID,18.5027,VALID,186,VALID,0.495617,
2001-09-21, 01:40:00,VALID,916.999,VALID,0,VALID,97.7165,VALID,-0.0169808,VALID,18.558,VALID,191,VALID,0.335732,
2001-09-21, 01:41:00,VALID,917.005,VALID,0,VALID,97.6681,VALID,0,VALID,18.5739,VALID,180,VALID,0.538035,
2001-09-21, 01:42:00,VALID,917.013,VALID,0,VALID,97.3502,VALID,0.0169808,VALID,18.519,VALID,179,VALID,0.621094,
2001-09-21, 01:43:00,VALID,917.008,VALID,0,VALID,97.321,VALID,0,VALID,18.4768,VALID,185,VALID,0.467905,
2001-09-21, 01:44:00,VALID,917.016,VALID,0,VALID,97.176,VALID,0.0169808,VALID,18.4383,VALID,181,VALID,0.420536,
2001-09-21, 01:45:00,VALID,917.003,VALID,0,VALID,97.0412,VALID,0.0169808,VALID,18.3892,VALID,184,VALID,0.428865,
2001-09-21, 01:46:00,VALID,916.995,VALID,0,VALID,96.9802,VALID,0,VALID,18.341,VALID,186,VALID,0.286951,
2001-09-21, 01:47:00,VALID,916.986,VALID,0,VALID,97.1035,VALID,0,VALID,18.3255,VALID,177,VALID,0.627467,
2001-09-21, 01:48:00,VALID,916.976,VALID,0,VALID,97.2536,VALID,-0.0169808,VALID,18.3151,VALID,171,VALID,0.844806,
2001-09-21, 01:49:00,VALID,916.955,VALID,0,VALID,97.3718,VALID,0,VALID,18.3352,VALID,178,VALID,0.793945,
2001-09-21, 01:50:00,VALID,916.938,VALID,0,VALID,97.4837,VALID,0.0169808,VALID,18.3253,VALID,178,VALID,0.636719,
2001-09-21, 01:51:00,VALID,916.905,VALID,0,VALID,97.6249,VALID,0,VALID,18.3449,VALID,174,VALID,0.741753,
2001-09-21, 01:52:00,VALID,916.889,VALID,0,VALID,97.5092,VALID,0,VALID,18.332,VALID,160,VALID,0.575304,
2001-09-21, 01:53:00,VALID,916.867,VALID,0,VALID,97.5931,VALID,0.0169808,VALID,18.2962,VALID,156,VALID,0.500617,
2001-09-21, 01:54:00,VALID,916.846,VALID,0,VALID,97.9161,VALID,0,VALID,18.3096,VALID,142,VALID,0.822991,
2001-09-21, 01:55:00,VALID,916.828,VALID,0,VALID,98.2658,VALID,0.0169808,VALID,18.3834,VALID,147,VALID,0.912891,
2001-09-21, 01:56:00,VALID,916.8,VALID,0,VALID,98.3408,VALID,0.0169808,VALID,18.4355,VALID,142,VALID,0.918069,
2001-09-21, 01:57:00,VALID,916.784,VALID,0,VALID,98.4133,VALID,0,VALID,18.4607,VALID,140,VALID,0.758429,
2001-09-21, 01:58:00,VALID,916.758,VALID,0,VALID,98.4807,VALID,0,VALID,18.493,VALID,139,VALID,0.616571,
2001-09-21, 01:59:00,VALID,916.734,VALID,0,VALID,98.4832,VALID,-0.0169808,VALID,18.516,VALID,136,VALID,0.431641,
2001-09-21, 02:00:00,VALID,916.736,VALID,0,VALID,98.2582,VALID,0.0169808,VALID,18.4872,VALID,126,VALID,0.0460526,
2001-09-21, 02:01:00,VALID,916.731,VALID,0,VALID,97.8233,VALID,0,VALID,18.3417,VALID,68,VALID,0.530633,
2001-09-21, 02:02:00,VALID,916.738,VALID,0,VALID,97.7635,VALID,0,VALID,18.2344,VALID,68,VALID,0.460726,
2001-09-21, 02:03:00,VALID,916.762,VALID,0,VALID,98.4235,VALID,0,VALID,18.3128,VALID,71,VALID,0.245226,
2001-09-21, 02:04:00,VALID,916.773,VALID,0,VALID,97.9631,VALID,0,VALID,18.2768,VALID,69,VALID,0.216741,
2001-09-21, 02:05:00,VALID,916.796,VALID,0,VALID,97.3566,VALID,0,VALID,18.1253,VALID,68,VALID,0.354911,
2001-09-21, 02:06:00,VALID,916.823,VALID,0,VALID,97.4736,VALID,0.0169808,VALID,18.0928,VALID,68,VALID,0.21516,
2001-09-21, 02:07:00,VALID,916.839,VALID,0,VALID,97.7177,VALID,0.0169808,VALID,18.1251,VALID,68,VALID,0.267103,
2001-09-21, 02:08:00,VALID,916.851,VALID,0,VALID,97.9123,VALID,0,VALID,18.1638,VALID,68,VALID,0.189145,
2001-09-21, 02:09:00,VALID,916.875,VALID,0,VALID,98.117,VALID,0.0169808,VALID,18.2189,VALID,68,VALID,0.138148,
2001-09-21, 02:10:00,VALID,916.891,VALID,0,VALID,98.2391,VALID,0,VALID,18.2773,VALID,68,VALID,0,
2001-09-21, 02:11:00,VALID,916.899,VALID,0,VALID,98.2874,VALID,0,VALID,18.3357,VALID,68,VALID,0.0343339,
2001-09-21, 02:12:00,VALID,916.9,VALID,0,VALID,97.6173,VALID,0,VALID,18.2353,VALID,63,VALID,0.0279948,
2001-09-21, 02:13:00,VALID,916.917,VALID,0,VALID,96.8111,VALID,0.0169808,VALID,18.0277,VALID,33,VALID,0.449747,
2001-09-21, 02:14:00,VALID,916.907,VALID,0,VALID,96.8683,VALID,0,VALID,17.9673,VALID,33,VALID,0.341518,
2001-09-21, 02:15:00,VALID,916.902,VALID,0,VALID,97.2383,VALID,0.0169808,VALID,18.0028,VALID,33,VALID,0.232936,
2001-09-21, 02:16:00,VALID,916.903,VALID,0,VALID,97.5804,VALID,0,VALID,18.0607,VALID,33,VALID,0.232475,
2001-09-21, 02:17:00,VALID,916.881,VALID,0,VALID,97.8843,VALID,0.0339617,VALID,18.1283,VALID,33,VALID,0.0148026,
2001-09-21, 02:18:00,VALID,916.873,VALID,0,VALID,97.8945,VALID,0.0169808,VALID,18.1541,VALID,33,VALID,0,
2001-09-21, 02:19:00,VALID,916.848,VALID,0,VALID,97.8284,VALID,0.0339617,VALID,18.1638,VALID,33,VALID,0,
2001-09-21, 02:20:00,VALID,916.85,VALID,0,VALID,97.7406,VALID,0,VALID,18.1477,VALID,33,VALID,0,
2001-09-21, 02:21:00,VALID,916.854,VALID,0,VALID,97.7737,VALID,0.0169808,VALID,18.164,VALID,33,VALID,0,
2001-09-21, 02:22:00,VALID,916.845,VALID,0,VALID,98.0255,VALID,0.0679233,VALID,18.2252,VALID,33,VALID,0,
2001-09-21, 02:23:00,VALID,916.828,VALID,0,VALID,98.1399,VALID,0.0169808,VALID,18.2768,VALID,33,VALID,0,
2001-09-21, 02:24:00,VALID,916.799,VALID,0,VALID,98.3001,VALID,0.0169808,VALID,18.3387,VALID,33,VALID,0,
2001-09-21, 02:25:00,VALID,916.773,VALID,0,VALID,98.4654,VALID,0,VALID,18.406,VALID,33,VALID,0,
2001-09-21, 02:26:00,VALID,916.758,VALID,0,VALID,98.4171,VALID,0.0169808,VALID,18.451,VALID,47,VALID,0,
2001-09-21, 02:27:00,VALID,916.723,VALID,0,VALID,98.3256,VALID,0.0169808,VALID,18.4602,VALID,73,VALID,0.194696,
2001-09-21, 02:28:00,VALID,916.708,VALID,0,VALID,98.3167,VALID,0.0849042,VALID,18.487,VALID,104,VALID,0.290707,
2001-09-21, 02:29:00,VALID,916.7,VALID,0,VALID,98.3434,VALID,0.0169808,VALID,18.5165,VALID,126,VALID,0.35332,
2001-09-21, 02:30:00,VALID,916.691,VALID,0,VALID,98.3764,VALID,0,VALID,18.5483,VALID,131,VALID,0.293997,
2001-09-21, 02:31:00,VALID,916.693,VALID,0,VALID,98.3637,VALID,0.0169808,VALID,18.5645,VALID,124,VALID,0.483141,
2001-09-21, 02:32:00,VALID,916.689,VALID,0,VALID,98.4006,VALID,0,VALID,18.5998,VALID,118,VALID,0.780194,
2001-09-21, 02:33:00,VALID,916.666,VALID,0,VALID,98.4692,VALID,0,VALID,18.6452,VALID,114,VALID,0.669488,
2001-09-21, 02:34:00,VALID,916.655,VALID,0,VALID,98.3612,VALID,0,VALID,18.6644,VALID,97,VALID,0.340179,
2001-09-21, 02:35:00,VALID,916.645,VALID,0,VALID,98.2912,VALID,0,VALID,18.6708,VALID,97,VALID,0.282552,
2001-09-21, 02:36:00,VALID,916.632,VALID,0,VALID,98.2454,VALID,0.0339617,VALID,18.6704,VALID,97,VALID,0.252111,
2001-09-21, 02:37:00,VALID,916.634,VALID,0,VALID,98.2086,VALID,0,VALID,18.6897,VALID,97,VALID,0.248522,
2001-09-21, 02:38:00,VALID,916.636,VALID,0,VALID,98.1056,VALID,0,VALID,18.6902,VALID,97,VALID,0.261308,
2001-09-21, 02:39:00,VALID,916.645,VALID,0,VALID,98.0051,VALID,0.0169808,VALID,18.6803,VALID,97,VALID,0.358613,
2001-09-21, 02:40:00,VALID,916.644,VALID,0,VALID,98.0967,VALID,0.0169808,VALID,18.6897,VALID,98,VALID,0.574836,
2001-09-21, 02:41:00,VALID,916.641,VALID,0,VALID,98.1819,VALID,0.0169808,VALID,18.7319,VALID,100,VALID,0.519531,
2001-09-21, 02:42:00,VALID,916.651,VALID,0,VALID,98.0878,VALID,0.0339617,VALID,18.7575,VALID,100,VALID,0.432292,
2001-09-21, 02:43:00,VALID,916.642,VALID,0,VALID,98.0267,VALID,0,VALID,18.7737,VALID,99,VALID,0.28125,
2001-09-21, 02:44:00,VALID,916.625,VALID,0,VALID,98.0013,VALID,0,VALID,18.8025,VALID,91,VALID,0.392857,
2001-09-21, 02:45:00,VALID,916.61,VALID,0,VALID,97.8563,VALID,0.0169808,VALID,18.8095,VALID,90,VALID,0.17023,
2001-09-21, 02:46:00,VALID,916.609,VALID,0,VALID,97.7444,VALID,-0.0339617,VALID,18.8295,VALID,88,VALID,0.300676,
2001-09-21, 02:47:00,VALID,916.597,VALID,0,VALID,97.6185,VALID,-0.0169808,VALID,18.8321,VALID,86,VALID,0.315378,
2001-09-21, 02:48:00,VALID,916.608,VALID,0,VALID,97.452,VALID,0,VALID,18.8321,VALID,84,VALID,0.434544,
2001-09-21, 02:49:00,VALID,916.61,VALID,0,VALID,97.3197,VALID,0,VALID,18.8452,VALID,72,VALID,0.679297,
2001-09-21, 02:50:00,VALID,916.61,VALID,0,VALID,97.3744,VALID,-0.0169808,VALID,18.8487,VALID,78,VALID,0.777344,
2001-09-21, 02:51:00,VALID,916.605,VALID,0,VALID,97.4392,VALID,0,VALID,18.8609,VALID,89,VALID,0.536241,
2001-09-21, 02:52:00,VALID,916.61,VALID,0,VALID,97.485,VALID,-0.0169808,VALID,18.8676,VALID,94,VALID,0.5727,
2001-09-21, 02:53:00,VALID,916.598,VALID,0,VALID,97.4914,VALID,0.0169808,VALID,18.8611,VALID,85,VALID,0.456003,
2001-09-21, 02:54:00,VALID,916.595,VALID,0,VALID,97.5295,VALID,0,VALID,18.8618,VALID,54,VALID,0.342411,
2001-09-21, 02:55:00,VALID,916.58,VALID,0,VALID,97.5524,VALID,0,VALID,18.8514,VALID,67,VALID,0.316797,
2001-09-21, 02:56:00,VALID,916.571,VALID,0,VALID,97.5753,VALID,-0.0169808,VALID,18.845,VALID,54,VALID,0.385216,
2001-09-21, 02:57:00,VALID,916.545,VALID,0,VALID,97.56,VALID,-0.0169808,VALID,18.8512,VALID,37,VALID,0.423109,
2001-09-21, 02:58:00,VALID,916.509,VALID,0,VALID,97.5689,VALID,0,VALID,18.8482,VALID,19,VALID,0.598684,
2001-09-21, 02:59:00,VALID,916.475,VALID,0,VALID,97.4965,VALID,0,VALID,18.8413,VALID,21,VALID,0.722852,
2001-09-21, 03:00:00,VALID,916.456,VALID,0,VALID,97.4507,VALID,0,VALID,18.8388,VALID,31,VALID,0.79338,
2001-09-21, 03:01:00,VALID,916.435,VALID,0,VALID,97.3223,VALID,0.0169808,VALID,18.7998,VALID,33,VALID,0.762952,
2001-09-21, 03:02:00,VALID,916.423,VALID,0,VALID,97.2994,VALID,-0.0339617,VALID,18.7541,VALID,40,VALID,0.717061,
2001-09-21, 03:03:00,VALID,916.423,VALID,0,VALID,97.4113,VALID,0,VALID,18.7488,VALID,36,VALID,0.58138,
2001-09-21, 03:04:00,VALID,916.416,VALID,0,VALID,97.4545,VALID,0,VALID,18.7225,VALID,34,VALID,0.496429,
2001-09-21, 03:05:00,VALID,916.417,VALID,0,VALID,97.4672,VALID,0,VALID,18.7093,VALID,34,VALID,0.278088,
2001-09-21, 03:06:00,VALID,916.415,VALID,0,VALID,97.555,VALID,0,VALID,18.68,VALID,32,VALID,0.0225929,
2001-09-21, 03:07:00,VALID,916.421,VALID,0,VALID,97.6262,VALID,0,VALID,18.6835,VALID,10,VALID,0.231841,
2001-09-21, 03:08:00,VALID,916.427,VALID,0,VALID,97.7571,VALID,0,VALID,18.7026,VALID,346,VALID,0.306743,
2001-09-21, 03:09:00,VALID,916.436,VALID,0,VALID,97.8576,VALID,0,VALID,18.7218,VALID,328,VALID,0.373857,
2001-09-21, 03:10:00,VALID,916.43,VALID,0,VALID,97.9021,VALID,0,VALID,18.7513,VALID,325,VALID,0.0180921,
2001-09-21, 03:11:00,VALID,916.422,VALID,0,VALID,97.9021,VALID,-0.0339617,VALID,18.7509,VALID,314,VALID,0.212582,
2001-09-21, 03:12:00,VALID,916.421,VALID,0,VALID,97.8843,VALID,-0.0169808,VALID,18.7677,VALID,286,VALID,0.265625,
2001-09-21, 03:13:00,VALID,916.422,VALID,0,VALID,97.8652,VALID,0,VALID,18.7511,VALID,275,VALID,0.286318,
2001-09-21, 03:14:00,VALID,916.441,VALID,0,VALID,97.8474,VALID,0,VALID,18.7319,VALID,274,VALID,0.367411,
2001-09-21, 03:15:00,VALID,916.431,VALID,0,VALID,97.8589,VALID,0,VALID,18.7193,VALID,255,VALID,0.416941,
2001-09-21, 03:16:00,VALID,916.435,VALID,0,VALID,97.9275,VALID,-0.0169808,VALID,18.7128,VALID,266,VALID,0.228463,
2001-09-21, 03:17:00,VALID,916.407,VALID,0,VALID,98,VALID,-0.0339617,VALID,18.693,VALID,266,VALID,0.181538,
2001-09-21, 03:18:00,VALID,916.415,VALID,0,VALID,98.0585,VALID,-0.0169808,VALID,18.7001,VALID,266,VALID,0.042652,
2001-09-21, 03:19:00,VALID,916.4,VALID,0,VALID,98.1106,VALID,0,VALID,18.6902,VALID,266,VALID,0,
2001-09-21, 03:20:00,VALID,916.396,VALID,0,VALID,98.1564,VALID,-0.0169808,VALID,18.6967,VALID,266,VALID,0,
2001-09-21, 03:21:00,VALID,916.407,VALID,0,VALID,98.1831,VALID,-0.0169808,VALID,18.6872,VALID,266,VALID,0,
2001-09-21, 03:22:00,VALID,916.404,VALID,0,VALID,98.2238,VALID,-0.0169808,VALID,18.6867,VALID,265,VALID,0.0577257,
2001-09-21, 03:23:00,VALID,916.398,VALID,0,VALID,98.2607,VALID,0,VALID,18.6798,VALID,262,VALID,0.0612664,
2001-09-21, 03:24:00,VALID,916.395,VALID,0,VALID,98.2696,VALID,0,VALID,18.6773,VALID,262,VALID,0,
2001-09-21, 03:25:00,VALID,916.378,VALID,0,VALID,98.2238,VALID,0,VALID,18.6452,VALID,262,VALID,0,
2001-09-21, 03:26:00,VALID,916.37,VALID,0,VALID,98.2454,VALID,0,VALID,18.6154,VALID,262,VALID,0,
2001-09-21, 03:27:00,VALID,916.352,VALID,0,VALID,98.1628,VALID,0,VALID,18.5968,VALID,262,VALID,0,
2001-09-21, 03:28:00,VALID,916.331,VALID,0,VALID,98.0267,VALID,0,VALID,18.5444,VALID,262,VALID,0,
2001-09-21, 03:29:00,VALID,916.335,VALID,0,VALID,97.9123,VALID,0,VALID,18.48,VALID,262,VALID,0,
2001-09-21, 03:30:00,VALID,916.337,VALID,0,VALID,97.7457,VALID,-0.0169808,VALID,18.4219,VALID,26,VALID,0,
2001-09-21, 03:31:00,VALID,916.363,VALID,0,VALID,97.5079,VALID,0.0339617,VALID,18.3283,VALID,40,VALID,0,
2001-09-21, 03:32:00,VALID,916.377,VALID,0,VALID,97.5626,VALID,0,VALID,18.2768,VALID,43,VALID,0.542019,
2001-09-21, 03:33:00,VALID,916.415,VALID,0,VALID,97.85,VALID,0.0169808,VALID,18.2757,VALID,45,VALID,0.494141,
2001-09-21, 03:34:00,VALID,916.436,VALID,0,VALID,98.0992,VALID,0,VALID,18.3578,VALID,35,VALID,0.291295,
2001-09-21, 03:35:00,VALID,916.456,VALID,0,VALID,98.1882,VALID,0,VALID,18.3929,VALID,30,VALID,0.0269717,
2001-09-21, 03:36:00,VALID,916.482,VALID,0,VALID,98.1564,VALID,0,VALID,18.4092,VALID,30,VALID,0,
2001-09-21, 03:37:00,VALID,916.508,VALID,0,VALID,98.0636,VALID,0,VALID,18.3993,VALID,30,VALID,0,
2001-09-21, 03:38:00,VALID,916.533,VALID,0,VALID,97.9759,VALID,-0.0339617,VALID,18.3899,VALID,30,VALID,0,
2001-09-21, 03:39:00,VALID,916.549,VALID,0,VALID,97.9479,VALID,0,VALID,18.3603,VALID,30,VALID,0,
2001-09-21, 03:40:00,VALID,916.56,VALID,0,VALID,97.8805,VALID,0,VALID,18.344,VALID,30,VALID,0,